Regional Weather Roundup
Issued by NWS

Home | Current Version | Previous Version | Text Only | Print | Product List | Glossary On
Versions: 1 2 3 4 5 6 7 8 9 10 11 12 13 14 15 16 17 18 19 20 21 22 23 24 25 26 27 28 29 30 31 32 33 34 35 36 37 38 39 40 41 42 43 44 45 46 47 48 49 50
000
ASUS43 KLOT 300212
RWRIL

ILLINOIS REGIONAL WEATHER ROUNDUP
NATIONAL WEATHER SERVICE CHICAGO/ROMEOVILLE IL
900 PM CDT WED JUL 29 2015

NOTE: "FAIR" INDICATES FEW OR NO CLOUDS BELOW 12,000 FEET WITH NO
SIGNIFICANT WEATHER AND/OR OBSTRUCTIONS TO VISIBILITY.

* THESE STATIONS ARE NOT UNDER NWS QUALITY CONTROL. THEY ALSO MAY NOT
  REPORT WEATHER SUCH AS PRECIPITATION OR FOG.

ILZ001-002-007-009-015-016-024-300300-
NORTHWEST ILLINOIS

CITY           SKY/WX    TMP DP  RH WIND       PRES   REMARKS
MOLINE         CLEAR     72  59  63 SW5       30.05R
STERLING*      CLEAR     70  61  73 W3        30.03R
SAVANNA*       CLEAR     77  56  47 W7        30.03R
$$

ILZ003-004-008-010-011-017-018-300300-
NORTH CENTRAL ILLINOIS

CITY           SKY/WX    TMP DP  RH WIND       PRES   REMARKS
ROCKFORD       CLEAR     73  58  59 SW5       30.02R
FREEPORT*      CLEAR     71  57  63 SW7       30.04R
ROCHELLE*      CLEAR     69  60  72 W7        30.03S
DE KALB*       CLEAR     74  58  56 W10G16    30.03R
PERU*          CLEAR     71  61  70 W9        30.04S
$$

ILZ005-006-012>014-019>023-300300-
NORTHEAST ILLINOIS

CITY           SKY/WX    TMP DP  RH WIND       PRES   REMARKS
CHICAGO-OHARE  PTCLDY    77  55  46 W8        29.99R
CHICAGO-MIDWAY CLEAR     81  54  39 W8        29.99R HX  81
AURORA         CLEAR     66  60  81 W7        30.01S
LANSING*       CLEAR     75  53  45 W7        30.01R
JOLIET*        CLEAR     76  60  58 CALM      30.02R
WAUKEGAN       CLEAR     75  54  47 VRB5      29.97R
DUPAGE AIRPORT CLEAR     74  57  55 W7        30.00R
KANKAKEE*      CLEAR     71  65  79 W5        30.04R
WHEELING       CLEAR     78  52  40 W8        30.00R
MORRIS*        CLEAR     70  63  76 W7        30.01R
ROMEOVILLE*    CLEAR     73  58  59 W7        30.01S
NORTHERLY ISL    N/A     80  51  36 NW9         N/A  HX  80
$$

LMZ740>746-300300-
SOUTHERN LAKE MICHIGAN

STATION/POSITION SKY/WX   TEMP    WIND        PRES    VSBY  WAVE
                          AIR SEA DIR/SP/G                  HT/PER
                          (F)     (DEG/KT/KT) (MB)    (MI)  (FT/S)
HARRISON CRIB              80     280/ 15/ 18   N/A
BURNHAM HARBOR             80     250/  5/ 14   N/A
CALUMET HARBOR             81                   N/A
BURNS HARBOR               79     280/ 14/ 16 1015.2R
MICHIGAN CITY              78     250/ 10/ 12   N/A
MICHIGAN CITY 6N           78 75  290/ 12/ 16   N/A           1/ 3
ST. JOSEPH                 77 75  310/ 14/ 16   N/A           2/ 3
$$

ILZ025>027-034>036-040-047-049-050-058-095>099-300300-
WEST-CENTRAL ILLINOIS

CITY           SKY/WX    TMP DP  RH WIND       PRES   REMARKS
QUINCY         CLEAR     75  62  64 W3        30.10R
GALESBURG*     CLEAR     72  62  70 SW6       30.08R
MACOMB*        CLEAR     69  66  89 W5        30.10S
JACKSONVILLE*  CLEAR     72  65  77 W5        30.09R
PITTSFIELD*    CLEAR     74  64  69 CALM      30.11R
$$

ILZ028>032-037-038-041>044-048-051>054-059>061-300300-
CENTRAL ILLINOIS

CITY           SKY/WX    TMP DP  RH WIND       PRES   REMARKS
PONTIAC        CLEAR     70  66  85 W7        30.05R
BLOOMINGTON    CLEAR     73  62  68 NW9       30.08R
DECATUR        CLEAR     76  58  53 NW8       30.07R
PEORIA         CLEAR     75  62  64 W5        30.06R
LACON*         CLEAR     72  62  68 CALM      30.04R
LINCOLN*       CLEAR     76  59  54 CALM      30.07R
SPRINGFIELD    CLEAR     73  60  63 W6        30.08R
TAYLORVILLE    CLEAR     68  61  77 NW5       30.08R
$$

ILZ033-039-045-046-055>057-062-063-300300-
EAST-CENTRAL ILLINOIS

CITY           SKY/WX    TMP DP  RH WIND       PRES   REMARKS
CHAMPAIGN      CLEAR     69  64  84 MISG      30.06R
DANVILLE*      PTCLDY    70  63  78 NW6       30.01R
RANTOUL*       CLEAR     73  63  69 NW8       30.06R
MATTOON        PTCLDY    70  61  73 NW7       30.04R
PARIS*         PTCLDY    72  64  75 NW3       30.05R
$$

ILZ079-100>102-300300-
SOUTHWEST ILLINOIS

CITY           SKY/WX    TMP DP  RH WIND       PRES   REMARKS
ALTON          CLEAR     75  64  69 NW9       30.09R
BELLEVILLE     PTCLDY    77  67  71 N2        30.06R
CAHOKIA*       PTCLDY    80  63  55 N9        30.07R HX  81
SPARTA*        PTCLDY    80  67  64 N6        30.07R HX  82
$$

ILZ064>066-069>071-074>076-080>082-084>086-088>090-092>094-300300-
SOUTH-CENTRAL ILLINOIS

CITY           SKY/WX    TMP DP  RH WIND       PRES   REMARKS
CARBONDALE     PTCLDY    80  76  87 N3        30.04R HX  86
CAIRO*         PTCLDY    82  77  86 N3        30.02R HX  89
EFFINGHAM*     MOCLDY    77  61  57 NW7       30.06R
MARION         MOCLDY    84  75  74 N5        30.04S HX  92
MT. VERNON     CLOUDY    81  66  61 N5        30.06R HX  83
CENTRALIA*     MOCLDY    80  63  56 N8        30.06R HX  81
SALEM*         MOCLDY    77  71  80 CALM      30.06R
METROPOLIS*    CLOUDY    82  81  98 CALM      30.03R HX  94
$$

ILZ067-068-072-073-078-083-087-091-300300-
SOUTHEAST ILLINOIS

CITY           SKY/WX    TMP DP  RH WIND       PRES   REMARKS
LAWRENCEVILLE  CLOUDY    77  68  73 NW8       30.03R
FLORA*         CLOUDY    78  69  73 NW5       30.05R HX  81
FAIRFIELD*     CLOUDY    81  73  76 N6        30.03R HX  85
HARRISBURG*    CLOUDY    83  76  81 NW5       30.04R HX  91
ROBINSON*      MOCLDY    76  68  76 NW6       30.04R
CARMI*         CLOUDY    82  71  70 MISG      30.02R HX  86
$$

ABBREVIATIONS USED IN REMARKS
   TC - TEMPERATURE IN CELSIUS
  WCI - WIND CHILL INDEX
   HX - HEAT INDEX
  VSB - VISIBILITY
$$




USA.gov is the U.S. government's official web portal to all federal, state and local government web resources and services.